User: anonymous   Login
Location: Montr�al
(45.5000°N, 73.5830°W)
Time: 12:26:21
(UTC-05:00)
Language:

Cosmos 1151 Rocket - Orbit

View from above orbital plane
View from above orbital plane
View from above satellite
View from above satellite

Ground track
Ground track

The orbit data is extracted from the following two-line orbital elements,

1 11672U 80005B   17024.12508131  .00000113  00000-0  95834-5 0  9994
2 11672  82.5136 215.3402 0018264  76.7079 283.6174 14.87842146  1971
Epoch (UTC): 24 January 2017 03:00:07
Eccentricity: 0.0018264
inclination: 82.5136°
perigee height: 592 km
apogee height: 617 km
right ascension of ascending node: 215.3402°
argument of perigee: 76.7079°
revolutions per day: 14.87842146
mean anomaly at epoch: 283.6174°
orbit number at epoch: 197

The dashed part of the orbit path shows where the satellite is in the earth's shadow,  

DLR